Change the Weather History Date:

Friday, January 24, 2014

  Actual Average (KRST) Record (KRST)
Temperature  
Mean Temperature 15 °F 16 °F  
Max Temperature 33 °F 24 °F 55 °F (1981)
Min Temperature -3 °F 8 °F -34 °F (1935)
Degree Days  
Heating Degree Days 50 49  
Month to date heating degree days 1189  
Since 1 July heating degree days 4267  
Cooling Degree Days 0 0  
Month to date cooling degree days 0  
Year to date cooling degree days 0  
Moisture  
Dew Point 13 °F    
Average Humidity 75    
Maximum Humidity 96    
Minimum Humidity 60    
Precipitation  
Precipitation 0.00 in 0.02 in 1.42 in (1967)
Month to date precipitation 0.66  
Year to date precipitation 0.66  
Snow  
Snow 0.00 in 0.40 in 5.40 in (1997)
Month to date snowfall 9.1  
Since 1 July snowfall 28.5  
Snow Depth -    
Sea Level Pressure  
Sea Level Pressure 29.73 in    
Wind  
Wind Speed 19 mph (WSW)    
Max Wind Speed 31 mph    
Max Gust Speed 37 mph    
Visibility 8 miles    
Events Rain , Snow    
T = Trace of Precipitation, MM = Missing Value Source: NWS Daily Summary

Daily Weather History Graph

Daily Weather History Graph

Search for Another Location

Airport or City:

Trip Planner

Search our weather history database for the weather conditions in past years. The results will help you decide how hot, cold, wet, or windy it might be!

Date:

Astronomy

Jan. 24, 2014 Rise Set
Actual Time 7:33 AM CST 5:09 PM CST
Civil Twilight 7:01 AM CST 5:40 PM CST
Nautical Twilight 6:27 AM CST 6:15 PM CST
Astronomical Twilight 5:53 AM CST 6:49 PM CST
Moon 12:58 AM CST (1/24) 11:30 AM CST (1/24)
Length of Visible Light 10h 38m
Length of Day
9h 36m
Last Quarter, 44% of the Moon is Illuminated
Jan 24
Last Quarter
Jan 30
New
Feb 6
First Quarter
Feb 14
Full
Feb 22
Last Quarter

Hourly Weather History & Observations

Time (CST) Temp. Windchill Dew Point Humidity Pressure Visibility Wind Dir Wind Speed Gust Speed Precip Events Conditions
12:14 AM -3.3 °F -23.6 °F -8.0 °F 80% 30.28 in 10.0 mi SW 15.0 mph 20.7 mph N/A   Clear
12:35 AM -3.3 °F -23.6 °F -8.1 °F 80% 30.26 in 10.0 mi SSW 15.0 mph 18.4 mph N/A   Clear
12:54 AM -2.4 °F -22.4 °F -8.0 °F 77% 30.24 in 10.0 mi SSW 15.0 mph - N/A   Clear
1:14 AM -2.2 °F -24.1 °F -8.1 °F 76% 30.22 in 10.0 mi SSW 18.4 mph - N/A   Clear
1:34 AM -0.9 °F -22.4 °F -7.8 °F 73% 30.19 in 10.0 mi SSW 18.4 mph 25.3 mph N/A   Clear
1:54 AM 0.9 °F -22.2 °F -7.1 °F 69% 30.17 in 10.0 mi SSW 23.0 mph 28.8 mph N/A   Clear
2:15 AM 1.6 °F -20.2 °F -6.9 °F 68% 30.14 in 10.0 mi SSW 20.7 mph 29.9 mph N/A   Clear
2:34 AM 3.0 °F -19.7 °F -6.5 °F 65% 30.14 in 10.0 mi SSW 24.2 mph 28.8 mph N/A   Clear
2:54 AM 4.1 °F -17.4 °F -6.0 °F 63% 30.11 in 10.0 mi SSW 21.9 mph 29.9 mph N/A   Clear
3:14 AM 5.0 °F -17.1 °F -5.6 °F 62% 30.08 in 7.0 mi SSW 24.2 mph 32.2 mph N/A   Clear
3:34 AM 6.1 °F -16.1 °F -5.1 °F 60% 30.05 in 7.0 mi SSW 25.3 mph 32.2 mph N/A   Scattered Clouds
3:54 AM 6.4 °F -15.2 °F -4.7 °F 60% 30.01 in 7.0 mi SSW 24.2 mph 36.8 mph N/A   Scattered Clouds
4:14 AM 7.3 °F -14.4 °F -4.0 °F 60% 30.00 in 5.0 mi SSW 25.3 mph 33.4 mph N/A   Haze
4:35 AM 7.7 °F -13.5 °F -2.9 °F 62% 29.99 in 5.0 mi SSW 24.2 mph 33.4 mph N/A   Haze
4:54 AM 7.7 °F -13.9 °F -2.2 °F 64% 29.97 in 5.0 mi SW 25.3 mph 33.4 mph N/A   Haze
5:15 AM 8.1 °F -13.0 °F -1.7 °F 65% 29.94 in 5.0 mi SSW 24.2 mph 33.4 mph N/A   Haze
5:34 AM 8.8 °F -12.4 °F -0.9 °F 65% 29.94 in 7.0 mi SW 25.3 mph 32.2 mph N/A   Mostly Cloudy
5:54 AM 10.0 °F -10.4 °F 0.5 °F 65% 29.90 in 4.0 mi SSW 24.2 mph 35.7 mph N/A   Haze
6:14 AM 10.8 °F -10.9 °F 1.2 °F 65% 29.87 in 4.0 mi SSW 28.8 mph 34.5 mph N/A   Haze
6:34 AM 11.8 °F -8.4 °F 2.3 °F 66% 29.87 in 4.0 mi SSW 25.3 mph 35.7 mph N/A   Haze
6:55 AM 12.2 °F -9.6 °F 3.0 °F 67% 29.85 in 4.0 mi SSW 31.1 mph 35.7 mph N/A   Haze
7:14 AM 12.6 °F -7.8 °F 3.4 °F 67% 29.84 in 5.0 mi SW 26.5 mph 35.7 mph N/A   Haze
7:35 AM 13.1 °F -5.1 °F 3.9 °F 67% 29.86 in 7.0 mi SW 20.7 mph 29.9 mph N/A   Mostly Cloudy
7:54 AM 13.1 °F -4.6 °F 4.1 °F 67% 29.84 in 7.0 mi SW 19.6 mph 32.2 mph N/A   Overcast
8:14 AM 13.5 °F -5.4 °F 5.0 °F 69% 29.82 in 5.0 mi SW 23.0 mph 32.2 mph N/A   Haze
8:34 AM 14.0 °F -3.4 °F 5.5 °F 69% 29.80 in 10.0 mi SW 19.6 mph 28.8 mph N/A   Overcast
8:54 AM 14.7 °F -2.9 °F 6.3 °F 69% 29.79 in 10.0 mi SW 20.7 mph 26.5 mph N/A   Overcast
9:14 AM 15.3 °F -3.4 °F 7.2 °F 70% 29.78 in 10.0 mi SW 24.2 mph 27.6 mph N/A   Overcast
9:35 AM 16.7 °F 0.5 °F 8.1 °F 69% 29.78 in 10.0 mi SW 18.4 mph 27.6 mph N/A   Overcast
9:54 AM 17.6 °F 0.5 °F 8.8 °F 68% 29.77 in 10.0 mi SW 21.9 mph 26.5 mph N/A   Overcast
10:14 AM 18.5 °F 2.9 °F 9.5 °F 68% 29.76 in 10.0 mi SW 18.4 mph 26.5 mph N/A   Overcast
10:34 AM 19.8 °F 4.1 °F 10.4 °F 67% 29.75 in 10.0 mi SW 19.6 mph 28.8 mph N/A   Overcast
10:54 AM 20.8 °F 6.4 °F 10.9 °F 66% 29.75 in 10.0 mi WSW 17.3 mph 26.5 mph N/A   Overcast
11:15 AM 21.9 °F 7.3 °F 11.7 °F 65% 29.72 in 10.0 mi WSW 18.4 mph 23.0 mph N/A   Overcast
11:34 AM 22.5 °F 8.9 °F 12.0 °F 64% 29.71 in 10.0 mi WSW 16.1 mph 27.6 mph N/A   Overcast
11:55 AM 23.4 °F 8.4 °F 12.9 °F 64% 29.70 in 10.0 mi WSW 20.7 mph 26.5 mph N/A   Scattered Clouds
12:14 PM 24.4 °F 10.6 °F 14.0 °F 65% 29.68 in 10.0 mi WSW 18.4 mph 24.2 mph N/A   Clear
12:34 PM 24.8 °F 11.9 °F 14.4 °F 65% 29.66 in 10.0 mi WSW 16.1 mph 26.5 mph N/A   Scattered Clouds
12:54 PM 24.8 °F 11.1 °F 15.3 °F 67% 29.65 in 10.0 mi WSW 18.4 mph 28.8 mph N/A   Mostly Cloudy
1:14 PM 25.7 °F 13.1 °F 16.2 °F 67% 29.63 in 10.0 mi WSW 16.1 mph 26.5 mph N/A   Scattered Clouds
1:34 PM 26.6 °F 14.3 °F 17.4 °F 68% 29.61 in 10.0 mi WSW 16.1 mph 26.5 mph N/A   Clear
1:54 PM 27.5 °F 15.4 °F 18.3 °F 68% 29.59 in 10.0 mi WSW 16.1 mph 24.2 mph N/A   Clear
2:14 PM 28.6 °F 17.2 °F 19.4 °F 69% 29.58 in 10.0 mi WSW 15.0 mph 21.9 mph N/A   Clear
2:34 PM 28.8 °F 17.0 °F 20.3 °F 71% 29.55 in 10.0 mi SW 16.1 mph - N/A   Clear
2:55 PM 29.1 °F 17.5 °F 21.0 °F 72% 29.55 in 10.0 mi WSW 16.1 mph - N/A   Mostly Cloudy
3:14 PM 30.0 °F 18.7 °F 21.9 °F 72% 29.55 in 10.0 mi WSW 16.1 mph 21.9 mph N/A   Mostly Cloudy
3:35 PM 30.4 °F 20.0 °F 23.0 °F 74% 29.55 in 10.0 mi WSW 13.8 mph 19.6 mph N/A   Mostly Cloudy
3:54 PM 31.1 °F 21.9 °F 23.9 °F 75% 29.54 in 10.0 mi WSW 11.5 mph - N/A   Scattered Clouds
4:14 PM 31.6 °F 22.1 °F 25.3 °F 78% 29.54 in 10.0 mi West 12.7 mph - N/A   Mostly Cloudy
4:34 PM 31.6 °F 21.6 °F 26.2 °F 80% 29.54 in 10.0 mi West 13.8 mph - N/A   Overcast
4:54 PM 31.6 °F 21.6 °F 26.6 °F 82% 29.53 in 10.0 mi West 13.8 mph - N/A   Overcast
5:14 PM 32.0 °F 21.6 °F 27.1 °F 82% 29.51 in 10.0 mi WSW 15.0 mph 21.9 mph N/A   Overcast
5:35 PM 32.0 °F 21.2 °F 28.4 °F 87% 29.51 in 1.8 mi WSW 16.1 mph 21.9 mph N/A Snow Light Snow
5:54 PM 31.8 °F 21.4 °F 29.7 °F 92% 29.50 in 1.8 mi WSW 15.0 mph 19.6 mph N/A Snow Light Snow
6:14 PM 32.0 °F 21.2 °F 30.2 °F 93% 29.50 in 1.8 mi WSW 16.1 mph 20.7 mph N/A Snow Light Snow
6:34 PM 32.0 °F 20.8 °F 30.9 °F 96% 29.50 in 1.8 mi West 17.3 mph 24.2 mph N/A Snow Light Snow
6:55 PM 32.2 °F 21.1 °F 31.1 °F 96% 29.49 in 2.0 mi West 17.3 mph 27.6 mph N/A Snow Light Snow
7:14 PM 32.4 °F 20.9 °F 31.1 °F 95% 29.49 in 1.2 mi West 18.4 mph 24.2 mph N/A Snow Light Snow
7:34 PM 32.4 °F 21.3 °F 31.5 °F 96% 29.48 in 2.5 mi West 17.3 mph - N/A Snow Light Snow
7:54 PM 32.5 °F 22.3 °F 31.6 °F 96% 29.48 in 2.0 mi West 15.0 mph 21.9 mph N/A Snow Light Snow
8:14 PM 32.9 °F 22.4 °F 31.8 °F 96% 29.47 in 2.0 mi West 16.1 mph - N/A Snow Light Snow
8:35 PM 33.1 °F 22.2 °F 32.0 °F 96% 29.46 in 3.0 mi West 17.3 mph - N/A Snow Light Snow
8:54 PM 33.4 °F 21.7 °F 32.0 °F 94% 29.46 in 7.0 mi WNW 20.7 mph - N/A   Overcast
9:15 PM 33.8 °F 22.5 °F 31.8 °F 92% 29.45 in 7.0 mi NW 19.6 mph 26.5 mph N/A Snow Light Snow
9:34 PM 33.8 °F 22.5 °F 31.5 °F 91% 29.45 in 7.0 mi NW 19.6 mph 27.6 mph N/A Rain Light Rain
9:54 PM 33.3 °F 21.5 °F 31.5 °F 93% 29.45 in 3.0 mi NW 20.7 mph 26.5 mph N/A Snow Light Snow
10:14 PM 33.3 °F 21.2 °F 30.7 °F 90% 29.45 in 7.0 mi NW 21.9 mph 25.3 mph N/A Snow Light Snow
10:34 PM 33.1 °F 20.9 °F 30.0 °F 89% 29.46 in 10.0 mi NW 21.9 mph 26.5 mph N/A   Overcast
10:54 PM 32.4 °F 20.3 °F 28.2 °F 85% 29.47 in 10.0 mi NW 20.7 mph 26.5 mph N/A   Overcast
11:14 PM 32.4 °F 19.7 °F 27.9 °F 83% 29.47 in 10.0 mi NW 23.0 mph 31.1 mph N/A   Overcast
11:34 PM 32.0 °F 20.1 °F 27.0 °F 82% 29.48 in 10.0 mi NW 19.6 mph 28.8 mph N/A   Overcast
11:54 PM 31.3 °F 18.5 °F 24.3 °F 75% 29.48 in 5.0 mi NW 21.9 mph 36.8 mph N/A   Haze